EW6288 Weather Reports


Display with metric or nautical units.
time (UTC)temp
F
wind
direction
speed
MPH
gust
MPH
rain 1hr
in
rain 24hr
in
rain mn
in
humidity
%
barometer
mb
20260509032118 75 158 0.0 2.0 0.00 0.00 0.00 90 1009.6
20260509031613 75 158 0.0 2.0 0.00 0.00 0.00 90 1009.7
20260509031112 75 158 0.0 2.0 0.00 0.00 0.00 90 1009.6
20260509030614 75 158 0.0 3.0 0.00 0.00 0.00 90 1009.5
20260509030111 75 158 0.0 3.0 0.00 0.00 0.00 90 1009.6
20260509025840 75 199 0.0 2.0 0.00 0.00 0.00 90 1009.7
20260509025114 75 199 0.0 2.0 0.00 0.00 0.00 90 1009.5
20260509024608 75 151 0.0 2.0 0.00 0.00 0.00 90 1009.5
20260509024109 75 136 0.0 2.0 0.00 0.00 0.00 90 1009.1
20260509023610 75 136 0.0 2.0 0.00 0.00 0.00 90 1009.2
20260509023110 75 136 0.0 2.0 0.00 0.00 0.00 90 1009.4
20260509022553 75 138 0.0 1.0 0.00 0.00 0.00 90 1009.4
20260509022052 74 138 0.0 1.0 0.00 0.00 0.00 90 1009.1
20260509021551 74 138 0.0 2.0 0.00 0.00 0.00 90 1008.8
20260509021050 74 138 1.0 2.0 0.00 0.00 0.00 90 1008.9
20260509020547 74 138 0.0 3.0 0.00 0.00 0.00 90 1008.8
20260509020049 74 138 0.0 3.0 0.00 0.00 0.00 90 1008.9
20260509015549 74 120 0.0 3.0 0.00 0.00 0.00 90 1008.8
20260509015048 74 116 0.0 3.0 0.00 0.00 0.00 90 1008.9
20260509014552 74 116 0.0 3.0 0.00 0.00 0.00 90 1008.9
20260509014048 74 72 0.0 2.0 0.00 0.00 0.00 90 1008.8
20260509013547 74 72 0.0 2.0 0.00 0.00 0.00 90 1008.5
20260509013048 74 72 0.0 2.0 0.00 0.00 0.00 90 1008.6
20260509012545 74 65 1.0 2.0 0.00 0.00 0.00 90 1008.5
20260509012047 74 65 0.0 2.0 0.00 0.00 0.00 90 1008.5
20260509011545 74 59 0.0 2.0 0.00 0.00 0.00 90 1008.7
20260509011044 74 59 0.0 2.0 0.00 0.00 0.00 90 1008.6
20260509010545 75 39 0.0 2.0 0.00 0.00 0.00 90 1008.7
20260509010043 74 32 0.0 1.0 0.00 0.00 0.00 90 1008.7
20260509005543 75 32 0.0 1.0 0.00 0.00 0.00 90 1008.7
20260509005046 75 32 0.0 1.0 0.00 0.00 0.00 90 1008.6
20260509004546 75 32 0.0 1.0 0.00 0.00 0.00 90 1008.7
20260509004044 75 32 0.0 1.0 0.00 0.00 0.00 90 1008.6
20260509003544 75 32 0.0 2.0 0.00 0.00 0.00 90 1008.6
20260509003042 75 32 0.0 2.0 0.00 0.00 0.00 90 1008.6
20260509002543 75 32 0.0 2.0 0.00 0.00 0.00 90 1008.6
20260509002316 75 32 0.0 2.0 0.00 0.00 0.00 90 1008.6
20260509001811 75 32 0.0 2.0 0.00 0.00 0.00 90 1008.7
20260509001041 74 32 0.0 2.0 0.00 0.00 0.00 90 1008.6
20260509000539 74 152 0.0 2.0 0.00 0.00 0.00 90 1008.5
20260509000040 74 152 0.0 2.0 0.00 0.00 0.00 90 1008.5
20260508235539 75 152 0.0 2.0 0.00 0.00 0.00 90 1008.5
20260508235306 74 152 0.0 2.0 0.00 0.00 0.00 90 1008.5
20260508234534 74 152 0.0 2.0 0.00 0.00 0.00 90 1008.7
20260508234030 74 152 0.0 2.0 0.00 0.00 0.00 90 1008.7
20260508233529 74 152 0.0 1.0 0.00 0.00 0.00 90 1008.7
20260508233029 74 152 0.0 1.0 0.00 0.00 0.00 90 1008.9
20260508232529 74 152 0.0 1.0 0.00 0.00 0.00 90 1008.9
20260508232300 74 152 0.0 0.0 0.00 0.00 0.00 90 1009.0
20260508231526 74 152 0.0 1.0 0.00 0.00 0.00 90 1009.0
20260508231025 74 152 0.0 1.0 0.00 0.00 0.00 90 1008.8
20260508230754 74 152 0.0 1.0 0.00 0.00 0.00 90 1008.8
20260508230024 74 152 0.0 1.0 0.00 0.00 0.00 90 1008.9
20260508225753 74 152 0.0 0.0 0.00 0.00 0.00 90 1008.8
20260508225022 74 152 0.0 1.0 0.00 0.00 0.00 90 1008.7
20260508224517 74 152 0.0 1.0 0.00 0.00 0.00 90 1008.7
20260508224018 74 152 0.0 1.0 0.00 0.00 0.00 90 1008.7
20260508223518 74 152 0.0 1.0 0.00 0.00 0.00 90 1008.8
20260508223015 74 152 0.0 1.0 0.00 0.00 0.00 90 1008.8
20260508222516 74 152 0.0 1.0 0.00 0.00 0.00 90 1008.8
20260508222015 74 152 0.0 2.0 0.00 0.00 0.00 90 1008.9
20260508221516 74 152 0.0 2.0 0.00 0.00 0.00 90 1009.0
20260508221016 74 152 0.0 2.0 0.00 0.00 0.00 90 1009.0
20260508220511 74 152 0.0 2.0 0.00 0.00 0.00 90 1009.0
20260508220011 74 152 0.0 2.0 0.00 0.00 0.00 90 1008.9
20260508215512 74 152 0.0 2.0 0.00 0.00 0.00 90 1008.8
20260508215005 74 152 0.0 2.0 0.00 0.00 0.00 90 1008.9
20260508214735 74 146 0.0 2.0 0.00 0.00 0.00 90 1009.0
20260508214002 74 146 0.0 3.0 0.00 0.00 0.00 90 1009.0
20260508213500 74 146 0.0 3.0 0.00 0.00 0.00 90 1009.2
20260508213001 73 0 1.0 3.0 0.00 0.00 0.00 90 1009.4
20260508212500 73 144 0.0 3.0 0.00 0.00 0.00 90 1009.4
20260508212000 73 148 0.0 2.0 0.00 0.00 0.00 90 1009.4
20260508211500 73 148 0.0 2.0 0.00 0.00 0.00 90 1009.4
20260508211000 73 148 0.0 2.0 0.00 0.00 0.00 90 1009.4
20260508210456 73 148 0.0 2.0 0.00 0.00 0.00 90 1009.5
20260508205955 73 147 0.0 2.0 0.00 0.00 0.00 90 1009.5
20260508205453 73 147 0.0 2.0 0.00 0.00 0.00 90 1009.4
20260508204950 73 147 0.0 2.0 0.00 0.00 0.00 90 1009.5
20260508204449 72 147 0.0 1.0 0.00 0.00 0.00 89 1009.6
20260508203952 72 147 0.0 2.0 0.00 0.00 0.00 89 1009.6
20260508203724 72 147 0.0 2.0 0.00 0.00 0.00 89 1009.6
20260508203448 72 147 0.0 2.0 0.00 0.00 0.00 89 1009.7
20260508202718 72 147 1.0 3.0 0.00 0.00 0.00 90 1009.8
20260508201951 72 147 0.0 3.0 0.00 0.00 0.00 90 1009.6
20260508201446 72 79 0.0 2.0 0.00 0.00 0.00 89 1009.8
20260508200945 72 0 0.0 2.0 0.00 0.00 0.00 89 1010.0
20260508200444 72 79 0.0 2.0 0.00 0.00 0.00 89 1010.1
20260508195943 72 38 0.0 1.0 0.00 0.00 0.00 89 1010.2
20260508195442 72 0 0.0 2.0 0.00 0.00 0.00 89 1010.1
20260508194943 71 0 0.0 2.0 0.00 0.00 0.00 89 1010.2
20260508194443 71 0 0.0 2.0 0.00 0.00 0.00 89 1010.3
20260508193939 71 0 0.0 2.0 0.00 0.00 0.00 89 1010.5
20260508193442 71 0 0.0 2.0 0.00 0.00 0.00 89 1010.6
20260508192933 71 0 0.0 1.0 0.00 0.00 0.00 89 1010.7
20260508192434 71 0 0.0 2.0 0.00 0.00 0.00 89 1010.8
20260508191933 71 0 0.0 2.0 0.00 0.00 0.00 89 1010.8
20260508191436 71 0 0.0 1.0 0.00 0.00 0.00 89 1010.8
20260508190933 71 0 0.0 2.0 0.00 0.00 0.00 89 1010.7
20260508190433 71 0 0.0 2.0 0.00 0.00 0.00 89 1010.8
20260508185935 71 0 0.0 3.0 0.00 0.00 0.00 89 1010.7
20260508185434 71 0 0.0 3.0 0.00 0.00 0.00 89 1010.7
20260508184934 71 0 0.0 2.0 0.00 0.00 0.00 89 1010.7
20260508184701 70 0 0.0 2.0 0.00 0.00 0.00 89 1010.7
20260508183933 70 0 0.0 2.0 0.00 0.00 0.00 89 1010.8
20260508183434 70 0 0.0 2.0 0.00 0.00 0.00 89 1010.7
20260508182931 70 0 0.0 2.0 0.00 0.00 0.00 89 1010.7
20260508182431 70 0 0.0 2.0 0.00 0.00 0.00 89 1010.9
20260508181931 70 0 1.0 2.0 0.00 0.00 0.00 88 1011.0
20260508181429 70 0 0.0 3.0 0.00 0.00 0.00 88 1011.0
20260508180932 70 355 0.0 3.0 0.00 0.00 0.00 88 1011.2
20260508180435 70 355 1.0 5.0 0.00 0.00 0.00 88 1011.3
20260508180429 70 355 1.0 5.0 0.00 0.00 0.00 88 1011.4
20260508175427 70 329 1.0 5.0 0.00 0.00 0.00 88 1011.3
20260508174927 70 165 1.0 5.0 0.00 0.00 0.00 88 1011.2
20260508174425 70 165 1.0 5.0 0.00 0.00 0.00 88 1011.3
20260508173918 70 127 0.0 3.0 0.00 0.00 0.00 88 1011.5
20260508173652 70 127 0.0 3.0 0.00 0.00 0.00 88 1011.5
20260508172920 70 127 0.0 3.0 0.00 0.00 0.00 88 1011.6
20260508172419 70 128 0.0 3.0 0.00 0.00 0.00 88 1011.6
20260508171919 69 146 0.0 3.0 0.00 0.00 0.00 88 1011.8
20260508171652 69 145 0.0 3.0 0.00 0.00 0.00 88 1011.7
20260508170919 69 145 0.0 3.0 0.00 0.00 0.00 87 1011.9
20260508170419 69 160 0.0 2.0 0.00 0.00 0.00 87 1011.9
20260508165917 69 158 0.0 2.0 0.00 0.00 0.00 87 1011.9
20260508165417 69 157 0.0 3.0 0.00 0.00 0.00 87 1011.9
20260508164919 69 157 0.0 3.0 0.00 0.00 0.00 87 1011.9
20260508164417 69 153 0.0 3.0 0.00 0.00 0.00 87 1012.0
20260508163916 69 154 1.0 3.0 0.00 0.00 0.00 87 1012.1
20260508163649 69 97 0.0 2.0 0.00 0.00 0.00 87 1012.2
20260508162915 69 19 0.0 6.0 0.00 0.00 0.00 87 1012.2
20260508162417 69 17 1.0 6.0 0.00 0.00 0.00 87 1012.2
20260508161911 69 15 1.0 6.0 0.00 0.00 0.00 87 1012.3
20260508161412 69 24 1.0 6.0 0.00 0.00 0.00 87 1012.4
20260508161143 69 76 1.0 3.0 0.00 0.00 0.00 87 1012.7
20260508160411 69 320 1.0 4.0 0.00 0.00 0.00 86 1012.7
20260508160139 69 320 1.0 4.0 0.00 0.00 0.00 86 1012.8
20260508155410 69 351 1.0 5.0 0.00 0.00 0.00 86 1012.9
20260508154912 69 355 1.0 5.0 0.00 0.00 0.00 86 1012.9
20260508154640 69 5 1.0 5.0 0.00 0.00 0.00 86 1013.1
20260508154140 69 5 1.0 5.0 0.00 0.00 0.00 86 1012.9
20260508153408 69 35 1.0 3.0 0.00 0.00 0.00 86 1012.8
20260508152909 69 48 1.0 5.0 0.00 0.00 0.00 86 1012.7
20260508152410 70 332 1.0 9.0 0.00 0.00 0.00 86 1012.8
20260508152405 70 30 1.0 5.0 0.00 0.00 0.00 86 1012.5
20260508151404 70 351 1.0 9.0 0.00 0.00 0.00 86 1012.7
20260508150904 70 40 2.0 9.0 0.00 0.00 0.00 86 1012.5
20260508150403 70 28 2.0 9.0 0.00 0.00 0.00 86 1012.8
20260508145859 70 338 2.0 4.0 0.00 0.00 0.00 86 1013.0
20260508145359 70 16 1.0 4.0 0.00 0.00 0.00 85 1012.7
20260508144859 70 326 0.0 3.0 0.00 0.00 0.00 85 1012.3
20260508144355 70 11 0.0 2.0 0.00 0.00 0.00 85 1012.3
20260508143855 70 9 0.0 4.0 0.00 0.00 0.00 85 1012.6
20260508143624 70 9 0.0 4.0 0.00 0.00 0.00 85 1012.7
20260508142851 70 193 0.0 3.0 0.00 0.00 0.00 85 1012.6
20260508142352 70 0 0.0 3.0 0.00 0.00 0.00 85 1012.7
20260508141851 70 196 0.0 2.0 0.00 0.00 0.00 85 1012.8
20260508141351 70 0 0.0 1.0 0.00 0.00 0.00 85 1012.6
20260508141121 70 0 0.0 3.0 0.00 0.00 0.00 85 1012.5
20260508140348 70 0 1.0 3.0 0.00 0.00 0.00 85 1012.8
20260508135842 70 0 0.0 3.0 0.00 0.00 0.00 85 1012.4
20260508135341 70 0 0.0 3.0 0.00 0.00 0.00 85 1012.5
20260508134839 70 0 0.0 1.0 0.00 0.00 0.00 85 1012.6
20260508134344 70 0 0.0 2.0 0.00 0.00 0.00 85 1012.7
20260508134340 70 0 0.0 2.0 0.00 0.00 0.00 85 1012.8
20260508133337 70 0 1.0 3.0 0.00 0.00 0.00 85 1012.7
20260508133106 70 0 1.0 3.0 0.00 0.00 0.00 85 1012.7
20260508132333 70 0 1.0 2.0 0.00 0.00 0.00 85 1012.8
20260508131830 70 0 0.0 2.0 0.00 0.00 0.00 85 1012.7
20260508131329 70 0 0.0 4.0 0.00 0.00 0.00 85 1012.9
20260508130830 70 0 0.0 4.0 0.00 0.00 0.00 85 1012.8
20260508130328 69 0 1.0 4.0 0.00 0.00 0.00 85 1012.8
20260508130058 70 0 0.0 4.0 0.00 0.00 0.00 85 1012.7
20260508125326 70 0 0.0 4.0 0.00 0.00 0.00 85 1012.9
20260508124825 70 19 1.0 4.0 0.00 0.00 0.00 85 1012.8
20260508124555 70 19 1.0 4.0 0.00 0.00 0.00 85 1012.8
20260508123821 69 0 1.0 3.0 0.00 0.00 0.00 85 1012.8
20260508123319 69 0 0.0 3.0 0.00 0.00 0.00 85 1012.5
20260508122818 69 28 0.0 3.0 0.00 0.00 0.00 84 1012.3
20260508122320 69 28 0.0 3.0 0.00 0.00 0.00 84 1012.5
20260508122047 69 0 1.0 3.0 0.00 0.00 0.00 84 1012.5
20260508121313 69 12 1.0 3.0 0.00 0.00 0.00 84 1012.6
20260508120814 69 0 1.0 3.0 0.00 0.00 0.00 84 1012.9
20260508120313 69 0 1.0 4.0 0.00 0.00 0.00 84 1013.1
20260508115812 69 0 2.0 7.0 0.00 0.00 0.00 84 1013.1
20260508115544 70 62 2.0 7.0 0.00 0.00 0.00 84 1013.0
20260508114811 70 294 1.0 5.0 0.00 0.00 0.00 84 1012.9
20260508114305 70 9 2.0 5.0 0.00 0.00 0.00 84 1012.8
20260508113804 70 21 2.0 5.0 0.00 0.00 0.00 84 1012.8
20260508113304 70 47 1.0 3.0 0.00 0.00 0.00 84 1012.6
20260508112801 70 26 1.0 3.0 0.00 0.00 0.00 84 1012.4
20260508112300 70 9 1.0 2.0 0.00 0.00 0.00 83 1012.3
20260508111759 70 0 1.0 2.0 0.00 0.00 0.00 83 1012.4
20260508111531 70 0 1.0 4.0 0.00 0.00 0.00 83 1012.5
20260508110758 70 0 1.0 4.0 0.00 0.00 0.00 83 1012.4
20260508110301 70 0 1.0 4.0 0.00 0.00 0.00 83 1012.4
20260508105751 70 0 1.0 4.0 0.00 0.00 0.00 83 1012.6
20260508105252 70 0 1.0 4.0 0.00 0.00 0.00 83 1012.6
20260508104754 71 0 1.0 3.0 0.00 0.00 0.00 83 1012.6
20260508104254 71 0 1.0 6.0 0.00 0.00 0.00 83 1012.6
20260508103752 71 0 1.0 6.0 0.00 0.00 0.00 83 1012.5
20260508103255 71 0 0.0 3.0 0.00 0.00 0.00 83 1012.3
20260508102749 71 0 0.0 2.0 0.00 0.00 0.00 82 1012.2
20260508102249 71 0 0.0 3.0 0.00 0.00 0.00 82 1012.2
20260508101748 71 0 1.0 3.0 0.00 0.00 0.00 82 1012.2
20260508101248 71 0 0.0 2.0 0.00 0.00 0.00 82 1012.4
20260508100752 71 0 0.0 3.0 0.00 0.00 0.00 82 1012.3
20260508100251 71 0 1.0 3.0 0.00 0.00 0.00 82 1012.4
20260508095749 71 0 1.0 3.0 0.00 0.00 0.00 82 1012.4
20260508095244 71 0 1.0 4.0 0.00 0.00 0.00 82 1012.5
20260508094746 71 0 1.0 4.0 0.00 0.00 0.00 82 1012.4
20260508094239 71 0 1.0 4.0 0.00 0.00 0.00 82 1012.2
20260508093741 71 209 1.0 4.0 0.00 0.00 0.00 81 1011.9
20260508093240 71 209 1.0 2.0 0.00 0.00 0.00 81 1011.6
20260508092740 71 218 0.0 2.0 0.00 0.00 0.00 81 1012.1
20260508092234 71 218 0.0 2.0 0.00 0.00 0.00 81 1012.0
20260508091734 71 0 0.0 2.0 0.00 0.00 0.00 81 1012.1
20260508091503 71 123 1.0 2.0 0.00 0.00 0.00 80 1012.1
20260508091001 71 0 0.0 2.0 0.00 0.00 0.00 80 1012.1
20260508090505 71 0 0.0 2.0 0.00 0.00 0.00 80 1012.1
20260508085726 72 13 1.0 3.0 0.00 0.00 0.00 80 1012.4
20260508085224 72 0 1.0 3.0 0.00 0.00 0.00 80 1012.4
20260508084723 72 34 1.0 3.0 0.00 0.00 0.00 80 1012.5
20260508084456 72 0 1.0 3.0 0.00 0.00 0.00 80 1012.5
20260508083726 72 42 1.0 2.0 0.00 0.00 0.00 80 1012.5
20260508083222 72 43 1.0 3.0 0.00 0.00 0.00 80 1012.4
20260508082722 72 5 1.0 3.0 0.00 0.00 0.00 79 1012.4
20260508082222 72 0 1.0 3.0 0.00 0.00 0.00 79 1012.5
20260508081718 72 5 1.0 3.0 0.00 0.00 0.00 79 1012.5
20260508081222 72 5 0.0 3.0 0.00 0.00 0.00 80 1012.4
20260508080720 72 5 1.0 3.0 0.00 0.00 0.00 80 1012.4
20260508080219 72 5 1.0 3.0 0.00 0.00 0.00 80 1012.3
20260508075714 72 5 1.0 3.0 0.00 0.00 0.00 80 1012.4
20260508075444 72 13 0.0 0.0 0.00 0.00 0.00 80 1012.5
20260508074711 72 13 0.0 0.0 0.00 0.00 0.00 80 1012.5
20260508074209 72 13 0.0 0.0 0.00 0.00 0.00 80 1012.8
20260508073710 72 35 0.0 1.0 0.00 0.00 0.00 80 1012.9
20260508073209 72 41 0.0 2.0 0.00 0.00 0.00 80 1012.7
20260508072940 72 42 0.0 2.0 0.00 0.00 0.00 79 1012.7
20260508072209 72 42 0.0 2.0 0.00 0.00 0.00 79 1012.7
20260508071707 72 63 0.0 2.0 0.00 0.00 0.00 79 1012.7
20260508071208 72 86 0.0 1.0 0.00 0.00 0.00 79 1012.5
20260508070707 72 86 0.0 1.0 0.00 0.00 0.00 79 1012.7
20260508070207 72 349 0.0 3.0 0.00 0.00 0.00 79 1012.8
20260508065702 72 349 0.0 3.0 0.00 0.00 0.00 79 1012.8
20260508065200 72 349 0.0 3.0 0.00 0.00 0.00 79 1012.8
20260508064658 72 349 1.0 3.0 0.00 0.00 0.00 79 1012.7
20260508064424 72 350 1.0 3.0 0.00 0.00 0.00 79 1012.8
20260508063655 73 38 1.0 3.0 0.00 0.00 0.00 79 1012.7
20260508063422 73 82 0.0 2.0 0.00 0.00 0.00 79 1012.7
20260508062654 73 82 0.0 2.0 0.00 0.00 0.00 79 1012.7
20260508062148 73 82 0.0 2.0 0.00 0.00 0.00 79 1012.8
20260508061915 73 82 0.0 2.0 0.00 0.00 0.00 79 1012.9
20260508061145 73 82 0.0 2.0 0.00 0.00 0.00 79 1012.9
20260508060918 73 84 0.0 1.0 0.00 0.00 0.00 79 1013.0
20260508060144 73 84 0.0 2.0 0.00 0.00 0.00 79 1013.1
20260508055641 73 84 0.0 2.0 0.00 0.00 0.00 79 1013.1
20260508055411 73 84 0.0 2.0 0.00 0.00 0.00 79 1012.9
20260508054639 73 84 0.0 2.0 0.00 0.00 0.00 79 1013.0
20260508054139 73 348 1.0 2.0 0.00 0.00 0.00 79 1012.8
20260508053637 73 348 1.0 2.0 0.00 0.00 0.00 78 1013.0
20260508053137 73 347 0.0 2.0 0.00 0.00 0.00 78 1012.9
20260508052637 73 347 1.0 2.0 0.00 0.00 0.00 78 1012.9
20260508052134 73 346 1.0 3.0 0.00 0.00 0.00 78 1012.9
20260508051627 73 346 0.0 3.0 0.00 0.00 0.00 78 1012.7
20260508051125 73 347 0.0 3.0 0.00 0.00 0.00 78 1012.7
20260508050627 73 347 0.0 3.0 0.00 0.00 0.00 78 1012.7
20260508050121 74 350 0.0 3.0 0.00 0.00 0.00 78 1012.8
20260508045622 74 350 0.0 3.0 0.00 0.00 0.00 78 1012.7
20260508045352 74 350 1.0 3.0 0.00 0.00 0.00 78 1012.7
20260508044618 74 24 1.0 2.0 0.00 0.00 0.00 78 1012.9
20260508044118 74 24 1.0 2.0 0.00 0.00 0.00 78 1012.9
20260508043618 74 24 1.0 2.0 0.00 0.00 0.00 78 1012.8
20260508043117 74 72 1.0 2.0 0.00 0.00 0.00 78 1012.8
20260508042616 74 140 0.0 2.0 0.00 0.00 0.00 78 1013.0
20260508042118 74 140 0.0 2.0 0.00 0.00 0.00 78 1013.0
20260508041613 74 140 0.0 2.0 0.00 0.00 0.00 78 1013.0
20260508041109 74 140 0.0 2.0 0.00 0.00 0.00 77 1012.9
20260508040610 74 140 1.0 5.0 0.00 0.00 0.00 77 1012.8
20260508040108 74 140 1.0 5.0 0.00 0.00 0.00 77 1012.6
20260508035839 74 309 1.0 3.0 0.00 0.00 0.00 77 1012.4
20260508035109 74 0 0.0 2.0 0.00 0.00 0.00 77 1012.6
20260508034609 74 355 0.0 2.0 0.00 0.00 0.00 77 1012.9
20260508034109 74 355 0.0 2.0 0.00 0.00 0.00 76 1012.9
20260508033609 74 355 0.0 4.0 0.00 0.00 0.00 76 1013.2
20260508033107 74 355 1.0 4.0 0.00 0.00 0.00 77 1013.5
20260508032606 74 355 1.0 4.0 0.00 0.00 0.00 77 1013.3